Météo par heure à Aalsmeer

Ce jour, 1 Décembre, Mardi

Heure Température Précipitation Vent Pression Humidité
00:00 +6°C° 1.1 mm 7 m/s 758 mmHg 82%
01:00 +6°C° 0.3 mm 7 m/s 758 mmHg 83%
02:00 +6°C° 0.3 mm 7 m/s 758 mmHg 85%
03:00 +5°C° 0.3 mm 7 m/s 758 mmHg 87%
04:00 +6°C° 0.7 mm 8 m/s 759 mmHg 87%
05:00 +6°C° 0.7 mm 9 m/s 759 mmHg 86%
06:00 +7°C° 0.7 mm 10 m/s 760 mmHg 86%
07:00 +7°C° 0.5 mm 10 m/s 760 mmHg 82%
08:00 +7°C° 0.5 mm 9 m/s 761 mmHg 78%
09:00 +7°C° 0.5 mm 9 m/s 761 mmHg 74%
10:00 +7°C° 0 mm 9 m/s 762 mmHg 72%
11:00 +7°C° 0 mm 8 m/s 762 mmHg 71%
12:00 +7°C° 0 mm 8 m/s 763 mmHg 70%
13:00 +7°C° 0 mm 8 m/s 763 mmHg 71%
14:00 +7°C° 0 mm 8 m/s 763 mmHg 72%
15:00 +7°C° 0 mm 8 m/s 763 mmHg 73%
16:00 +8°C° 0.1 mm 7 m/s 763 mmHg 77%
17:00 +7°C° 0.1 mm 6 m/s 763 mmHg 82%
18:00 +7°C° 0.1 mm 5 m/s 764 mmHg 86%
19:00 +7°C° 0 mm 5 m/s 764 mmHg 86%
20:00 +6°C° 0 mm 5 m/s 764 mmHg 86%
21:00 +6°C° 0 mm 5 m/s 765 mmHg 86%
22:00 +6°C° 0 mm 5 m/s 765 mmHg 86%
23:00 +6°C° 0 mm 4 m/s 765 mmHg 87%

Demain, 2 Décembre, Mercredi

Heure Température Précipitation Vent Pression Humidité
00:00 +5°C° 0 mm 4 m/s 765 mmHg 87%
01:00 +5°C° 0 mm 3 m/s 765 mmHg 88%
02:00 +5°C° 0 mm 3 m/s 765 mmHg 89%
03:00 +5°C° 0 mm 3 m/s 765 mmHg 90%
04:00 +6°C° 0 mm 2 m/s 765 mmHg 90%
05:00 +6°C° 0 mm 2 m/s 765 mmHg 89%
06:00 +7°C° 0 mm 1 m/s 765 mmHg 89%
07:00 +7°C° 0 mm 1 m/s 764 mmHg 89%
08:00 +7°C° 0 mm 1 m/s 764 mmHg 88%
09:00 +7°C° 0 mm 1 m/s 764 mmHg 88%
10:00 +7°C° 0 mm 1 m/s 763 mmHg 85%
11:00 +8°C° 0 mm 1 m/s 763 mmHg 82%
12:00 +8°C° 0 mm 1 m/s 762 mmHg 80%
13:00 +8°C° 0 mm 1 m/s 762 mmHg 80%
14:00 +8°C° 0 mm 1 m/s 761 mmHg 80%
15:00 +7°C° 0 mm 2 m/s 761 mmHg 81%
16:00 +6°C° 0 mm 2 m/s 760 mmHg 82%
17:00 +6°C° 0 mm 2 m/s 760 mmHg 84%
18:00 +4°C° 0 mm 3 m/s 760 mmHg 85%
19:00 +4°C° 0.1 mm 3 m/s 759 mmHg 85%
20:00 +4°C° 0.1 mm 4 m/s 759 mmHg 85%
21:00 +4°C° 0.1 mm 4 m/s 758 mmHg 85%
22:00 +4°C° 0.1 mm 4 m/s 758 mmHg 85%
23:00 +5°C° 0.1 mm 4 m/s 757 mmHg 85%

Après-demain, 3 Décembre, Jeudi

Heure Température Précipitation Vent Pression Humidité
00:00 +5°C° 0.1 mm 4 m/s 757 mmHg 85%
01:00 +5°C° 0 mm 4 m/s 756 mmHg 85%
02:00 +5°C° 0 mm 4 m/s 755 mmHg 86%
03:00 +5°C° 0 mm 4 m/s 754 mmHg 87%
04:00 +5°C° 0.4 mm 4 m/s 754 mmHg 87%
05:00 +5°C° 0.4 mm 4 m/s 753 mmHg 88%
06:00 +5°C° 0.4 mm 4 m/s 752 mmHg 88%
07:00 +5°C° 0.7 mm 4 m/s 752 mmHg 87%
08:00 +5°C° 0.7 mm 3 m/s 751 mmHg 86%
09:00 +5°C° 0.7 mm 3 m/s 751 mmHg 85%
10:00 +5°C° 0.1 mm 3 m/s 750 mmHg 81%
11:00 +7°C° 0.1 mm 3 m/s 749 mmHg 77%
12:00 +7°C° 0.1 mm 3 m/s 749 mmHg 74%
13:00 +7°C° 0.1 mm 3 m/s 748 mmHg 76%
14:00 +5°C° 0.1 mm 3 m/s 747 mmHg 78%
15:00 +5°C° 0.1 mm 3 m/s 746 mmHg 81%
16:00 +5°C° 0 mm 4 m/s 746 mmHg 82%
17:00 +4°C° 0 mm 4 m/s 745 mmHg 84%
18:00 +4°C° 0 mm 4 m/s 745 mmHg 85%
19:00 +4°C° 0 mm 4 m/s 744 mmHg 86%
20:00 +3°C° 0 mm 5 m/s 744 mmHg 86%
21:00 +3°C° 0 mm 5 m/s 743 mmHg 87%
22:00 +3°C° 0.1 mm 5 m/s 743 mmHg 88%
23:00 +3°C° 0.1 mm 5 m/s 742 mmHg 89%

4 Décembre, Vendredi

Heure Température Précipitation Vent Pression Humidité
00:00 +3°C° 0.1 mm 5 m/s 741 mmHg 90%
01:00 +3°C° 0.1 mm 5 m/s 741 mmHg 90%
02:00 +3°C° 0.1 mm 5 m/s 741 mmHg 90%
03:00 +3°C° 0.1 mm 5 m/s 740 mmHg 89%
04:00 +3°C° 0 mm 5 m/s 740 mmHg 89%
05:00 +3°C° 0 mm 5 m/s 740 mmHg 88%
06:00 +3°C° 0 mm 5 m/s 739 mmHg 88%
07:00 +3°C° 0 mm 5 m/s 739 mmHg 87%
08:00 +3°C° 0 mm 5 m/s 739 mmHg 86%
09:00 +2°C° 0 mm 6 m/s 739 mmHg 85%
10:00 +2°C° 0.1 mm 6 m/s 739 mmHg 84%
11:00 +3°C° 0.1 mm 6 m/s 738 mmHg 84%
12:00 +3°C° 0.1 mm 6 m/s 738 mmHg 84%
13:00 +3°C° 0 mm 6 m/s 738 mmHg 83%
14:00 +3°C° 0 mm 5 m/s 738 mmHg 82%
15:00 +3°C° 0 mm 5 m/s 738 mmHg 81%
16:00 +3°C° 0 mm 5 m/s 738 mmHg 81%
17:00 +3°C° 0 mm 5 m/s 738 mmHg 81%
18:00 +3°C° 0 mm 5 m/s 739 mmHg 81%
19:00 +3°C° 0 mm 5 m/s 739 mmHg 82%
20:00 +2°C° 0 mm 5 m/s 739 mmHg 82%
21:00 +3°C° 0 mm 4 m/s 740 mmHg 83%
22:00 +3°C° 0.1 mm 4 m/s 740 mmHg 84%
23:00 +3°C° 0.1 mm 4 m/s 740 mmHg 85%

5 Décembre, Samedi

Heure Température Précipitation Vent Pression Humidité
00:00 +2°C° 0.1 mm 3 m/s 740 mmHg 86%
01:00 +2°C° 0 mm 3 m/s 740 mmHg 86%
02:00 +2°C° 0 mm 3 m/s 741 mmHg 86%
03:00 +3°C° 0 mm 3 m/s 741 mmHg 86%
04:00 +3°C° 0 mm 3 m/s 741 mmHg 86%
05:00 +4°C° 0 mm 2 m/s 742 mmHg 86%
06:00 +4°C° 0 mm 2 m/s 742 mmHg 86%
07:00 +4°C° 0 mm 2 m/s 743 mmHg 86%
08:00 +4°C° 0 mm 2 m/s 743 mmHg 86%
09:00 +4°C° 0 mm 2 m/s 744 mmHg 86%
10:00 +5°C° 0.2 mm 1 m/s 744 mmHg 85%
11:00 +5°C° 0.2 mm 1 m/s 744 mmHg 85%
12:00 +5°C° 0.2 mm 1 m/s 744 mmHg 84%
13:00 +5°C° 0.3 mm 1 m/s 745 mmHg 85%
14:00 +5°C° 0.3 mm 1 m/s 745 mmHg 86%
15:00 +5°C° 0.3 mm 1 m/s 745 mmHg 88%
16:00 +5°C° 0.1 mm 1 m/s 746 mmHg 88%
17:00 +5°C° 0.1 mm 1 m/s 746 mmHg 89%
18:00 +5°C° 0.1 mm 1 m/s 746 mmHg 89%
19:00 +4°C° 0 mm 2 m/s 747 mmHg 89%
20:00 +4°C° 0 mm 2 m/s 747 mmHg 88%
21:00 +4°C° 0 mm 2 m/s 747 mmHg 88%
22:00 +4°C° 0 mm 2 m/s 747 mmHg 87%
23:00 +3°C° 0 mm 2 m/s 747 mmHg 87%

6 Décembre, Dimanche

Heure Température Précipitation Vent Pression Humidité
00:00 +3°C° 0 mm 2 m/s 747 mmHg 87%
01:00 +4°C° 0.1 mm 2 m/s 747 mmHg 86%
02:00 +4°C° 0.1 mm 2 m/s 748 mmHg 86%
03:00 +3°C° 0.1 mm 3 m/s 748 mmHg 85%
04:00 +3°C° 0.2 mm 3 m/s 747 mmHg 86%
05:00 +3°C° 0.2 mm 3 m/s 747 mmHg 88%
06:00 +3°C° 0.2 mm 3 m/s 747 mmHg 89%
07:00 +4°C° 0.1 mm 3 m/s 747 mmHg 88%
08:00 +4°C° 0.1 mm 3 m/s 747 mmHg 87%
09:00 +4°C° 0.1 mm 3 m/s 747 mmHg 87%
10:00 +5°C° 0.1 mm 3 m/s 747 mmHg 85%
11:00 +5°C° 0.1 mm 3 m/s 747 mmHg 83%
12:00 +6°C° 0.1 mm 4 m/s 747 mmHg 81%
13:00 +6°C° 0.2 mm 4 m/s 746 mmHg 82%
14:00 +6°C° 0.2 mm 4 m/s 746 mmHg 82%
15:00 +5°C° 0.2 mm 4 m/s 746 mmHg 83%
16:00 +5°C° 0.1 mm 4 m/s 746 mmHg 83%
17:00 +5°C° 0.1 mm 4 m/s 746 mmHg 84%
18:00 +5°C° 0.1 mm 4 m/s 746 mmHg 84%
19:00 +5°C° 0.3 mm 4 m/s 746 mmHg 84%
20:00 +5°C° 0.3 mm 4 m/s 746 mmHg 83%
21:00 +6°C° 0.3 mm 5 m/s 746 mmHg 83%
22:00 +6°C° 0.1 mm 5 m/s 746 mmHg 82%
23:00 +5°C° 0.1 mm 5 m/s 746 mmHg 80%
Voir plus

Nous avons besoin de votre consentement

Meteoprog et ses fournisseurs de services peuvent stocker et accéder à des données personnelles telles que des cookies, des identifiants d'appareils ou d'autres technologies similaires sur votre appareil et traiter ces données pour personnaliser le contenu et les publicités, ainsi que pour fournir des fonctionnalités de médias sociaux et analyser le trafic.

  • Stocker et/ou accéder à des informations sur votre appareil

    Des cookies, des identifiants d'appareils ou d'autres informations peuvent être stockés ou accessibles sur votre appareil aux fins indiquées ci-dessus.

  • Annonces et contenus personnalisés, mesure des annonces et des contenus, connaissance de l'audience et développement de produits

    Les annonces et le contenu peuvent être personnalisés en fonction d'un profil. D'autres données peuvent être ajoutées pour mieux personnaliser les annonces et le contenu. Les performances des publicités et du contenu peuvent être mesurées. Il est possible d'obtenir des informations sur le public qui a vu les publicités et le contenu. Ces données peuvent être utilisées pour développer ou améliorer l'expérience de l'utilisateur, les systèmes et les logiciels.

En cliquant sur "J'accepte", vous autorisez l'utilisation de cookies, des identifiants d'appareils, des balises web ou d'autres technologies similaires. Vos paramètres peuvent être modifiés dans le navigateur de votre appareil.

Dans certains cas, des intérêts légitimes peuvent être invoqués plutôt qu'un consentement. Vous pouvez en savoir plus à ce sujet dans notre Politique de confidentialité et de cookies.